map of LMO home
LMO - Airport
Location
City:  Lossiemouth, Morayshire, Scotland, United Kingdom
Name:RAF
ICAO:EGQS
IATA:LMO

Details
Type:Airport (Aerodrome, Airfield)
Use:Military, International (customs port of entry)
Latitude:5742'19"N (57.705214)
Longitude:320'21"W (-3.339168)
Datum:WGS 1984
Elevation:42 ft (13 m)
Variation:2.56W (WMM2015 magnetic declination)
0.18 annual change
Runways:2
Longest:9091 × 150 ft (2771 × 45.5 m), paved

Time
Time Zone:UTC+0 (DST+1)
Local Time:

Weather
METAR:EGQS 250050Z 17003KT CAVOK M01/M04 Q1029 BLU
TAF:EGQS 241911Z 2421/2515 16012KT 9999 FEW030 PROB30
TEMPO 2421/2503 17015G25KT

Related Locations
Nearby:
Farthest:SZS: 11602 mi / 18672 km
Ryan's Creek, Stewart Island, STL, NZ

Find:

   beyond  
but within

Other Information
Maps:
NOTAMs:
Links:
Sources:

  
flag of United Kingdom
flag of Scotland
flag of Royal Air Force
  

Airport Diagram

Airport diagram for LMO

Larger airport diagram (OBSOLETE) from NGA

Sectional Chart

Flight Planning
at skyvector.com

Satellite Image

Google Maps Satellite view

 

Copyright © 2004-2018 Karl L. Swartz. All rights reserved.
The Great Circle Mapper name and logo are trademarks of the Great Circle Mapper.
All other trademarks mentioned herein belong to their respective owners.
Please see credits for attibutions and further copyright information.

  Follow gcmap on Facebook Follow gcmap on Twitter Follow gcmap on Google+ GCmap on LinkedIn

hCard Microformat

Geo Microformat